[[{"header":{"parameterUnit":"m.s-1","parameterCategory":1,"la1":30.2992,"la2":30.254,"lo1":-89.0895,"lo2":-89.0443,"dy":0.0025,"dx":0.0025,"nx":19,"ny":19,"refTime":"2026-04-15T21:00:00:Z","depth":0,"parameterNumber":2,"parameterNumberName":"U-component_of_WINDS"},"data":[0,0,0,0.9697,0.9698,0.971,0.971,0.9744,0.9744,0,0,0,0,0,0,0,0,0,0,0,0.9704,0.9705,0.9697,0.9698,0.971,0.971,0.9744,0.9744,0,0,0,0,0,0,0,0,0,0,0,0.9704,0.9705,0.9706,0.9698,0.971,0.971,0.9743,0.9728,0,0,0,0,0,0,0,0,0,0,0.9713,0.973,0.9705,0.9706,0.9698,0.971,0.971,0.9727,0.9729,0.9746,0,0.9764,0,0.9755,0.9748,0.9748,0,0,0,0.969,0.9729,0.9722,0.9706,0.9698,0.971,0.9702,0.9728,0.973,0.9749,0.9764,0.9765,0.9755,0.9748,0.9748,0.9872,0.9873,0,0,0.9689,0.9713,0.9721,0.9724,0.9723,0.9702,0.9703,0.9729,0.9747,0.9764,0.9765,0.9756,0.9748,0.9749,0.9871,0.9872,0,0,0,0.9692,0.9713,0.9705,0.9723,0.9724,0.9702,0.9703,0.9746,0.9742,0.9766,0.9756,0.9749,0.9749,0.987,0.9872,0.9941,0,0,0,0.9692,0.9715,0.9705,0.972,0.9724,0.9735,0.9721,0.974,0.9742,0.9756,0.9749,0.975,0.9869,0.9871,0.9937,0.997,0,0,0,0.97,0.9715,0.9721,0.9721,0.9727,0.9734,0.9731,0.974,0.9737,0.9748,0.975,0.9868,0.9871,0.9933,0.9964,1.0009,0,0,0,0.9716,0.9784,0.9723,0.9794,0.9727,0.9777,0.973,0.9767,0.9785,0.9749,0.9869,0.9872,0.9932,0.996,1.0005,1.0051,1.0072,0,0,0.9815,0.9797,0.9837,0.9782,0.9849,0.9774,0.9851,0.9845,0.9825,0.9858,0.986,0.9938,0.9964,1.0008,1.0185,1.0202,0,0,0,0.9876,0.9905,0.9918,0.9936,0.9932,0.9932,0.9912,0.9909,0.9936,0.9846,0.9966,0.9981,1.0006,1.0027,1.0041,1.0061,0.9882,0.9882,0.9882,1.0051,1.002,1.0084,1.0055,1.0073,1.005,1.0062,1.0055,1.002,1.0049,1.0058,1.0169,1.0194,1.0205,1.0226,1.008,1.008,1.0081,1.0081,1.0192,1.0228,1.0178,1.0223,1.019,1.0227,1.0208,1.0182,1.0212,1.016,1.018,1.0125,1.0225,1.0241,1.0086,1.0085,1.0084,1.0084,1.0083,1.0302,1.0314,1.0309,1.033,1.035,1.0318,1.0349,1.0318,1.029,1.031,1.0316,1.0315,1.031,1.0315,1.0316,1.0316,1.0317,1.0317,1.0317,1.0418,1.0411,1.044,1.0441,1.0447,1.0452,1.043,1.0435,1.0434,1.0409,1.0409,1.0371,1.024,1.0208,1.0323,1.0322,1.0321,1.0321,1.032,1.0572,1.0532,1.0577,1.0583,1.0581,1.0603,1.0563,1.0577,1.0577,1.0593,1.055,1.0459,1.0438,1.0426,1.0399,1.0557,1.0557,1.0557,1.0557,1.0664,1.0651,1.0689,1.0701,1.0709,1.0677,1.0729,1.0712,1.0689,1.0687,1.066,1.0621,1.0611,1.0596,1.0581,1.0555,1.0749,1.0749,1.0749,1.0756,1.0742,1.0791,1.0767,1.0763,1.076,1.0807,1.0824,1.0789,1.0756,1.0685,1.0677,1.0614,1.0595,1.0561,1.0538,1.049,0,0]},{"header":{"parameterUnit":"m.s-1","parameterCategory":1,"la1":30.2992,"la2":30.254,"lo1":-89.0895,"lo2":-89.0443,"dy":0.0025,"dx":0.0025,"nx":19,"ny":19,"refTime":"2026-04-15T21:00:00:Z","depth":0,"parameterNumber":3,"parameterNumberName":"V-component_of_WINDS"},"data":[0,0,0,3.3627,3.3627,3.362,3.362,3.3634,3.3635,0,0,0,0,0,0,0,0,0,0,0,3.3643,3.3644,3.3627,3.3627,3.362,3.362,3.3634,3.3635,0,0,0,0,0,0,0,0,0,0,0,3.3643,3.3644,3.3644,3.3627,3.362,3.362,3.3634,3.3631,0,0,0,0,0,0,0,0,0,0,3.3634,3.3663,3.3644,3.3644,3.3627,3.362,3.362,3.3631,3.3631,3.3648,0,3.3666,0,3.3651,3.3637,3.3637,0,0,0,3.3616,3.3663,3.3648,3.3645,3.3627,3.362,3.362,3.3631,3.3632,3.3649,3.3666,3.3666,3.3651,3.3638,3.3638,3.3768,3.3769,0,0,3.3617,3.365,3.3647,3.3649,3.3652,3.362,3.362,3.3631,3.3652,3.3666,3.3666,3.3652,3.3638,3.3638,3.3767,3.3768,0,0,0,3.3625,3.3651,3.3635,3.3649,3.3646,3.362,3.362,3.3652,3.3644,3.3666,3.3652,3.3638,3.3639,3.3765,3.3767,3.3853,0,0,0,3.3625,3.3655,3.3635,3.3656,3.3646,3.3649,3.3641,3.3643,3.3643,3.3652,3.3638,3.3639,3.3764,3.3766,3.3848,3.3888,0,0,0,3.3639,3.3657,3.3661,3.3658,3.3656,3.3648,3.364,3.3642,3.3635,3.3638,3.3639,3.3763,3.3766,3.3844,3.3881,3.3931,0,0,0,3.3664,3.3738,3.3663,3.374,3.3656,3.3701,3.364,3.3672,3.3685,3.3638,3.3764,3.3767,3.3842,3.3876,3.3927,3.3979,3.4004,0,0,3.3776,3.3753,3.3796,3.3728,3.3795,3.37,3.3779,3.376,3.373,3.3757,3.376,3.385,3.388,3.393,3.4136,3.4156,0,0,0,3.3843,3.3874,3.3885,3.3898,3.3885,3.3876,3.3841,3.3834,3.3855,3.3751,3.3881,3.3898,3.3926,3.395,3.3967,3.3988,3.378,3.3779,3.3779,3.4049,3.4007,3.4075,3.4031,3.4045,3.4008,3.4015,3.3999,3.3953,3.3984,3.3992,3.4121,3.415,3.4163,3.4186,3.4017,3.4017,3.4017,3.4018,3.4209,3.4246,3.4182,3.4225,3.418,3.4216,3.4183,3.4149,3.4175,3.4113,3.4135,3.4069,3.4186,3.4204,3.4024,3.4023,3.4022,3.4021,3.4021,3.4339,3.4349,3.4338,3.4353,3.4369,3.4323,3.4351,3.4309,3.427,3.4293,3.4295,3.4293,3.4286,3.4297,3.4297,3.4298,3.4298,3.4299,3.4299,3.4476,3.4462,3.449,3.4483,3.4485,3.4484,3.4447,3.4449,3.444,3.4407,3.4407,3.4357,3.4206,3.4168,3.4306,3.4304,3.4303,3.4303,3.4302,3.4652,3.4605,3.465,3.4652,3.4639,3.4658,3.4604,3.4611,3.4607,3.4622,3.4567,3.4463,3.4436,3.4422,3.439,3.4577,3.4577,3.4577,3.4577,3.476,3.4742,3.4778,3.4785,3.4787,3.4743,3.4794,3.4767,3.4732,3.4726,3.4693,3.4648,3.4636,3.4616,3.4598,3.4568,3.4795,3.4795,3.4796,3.4865,3.4846,3.4897,3.4861,3.4848,3.4837,3.4884,3.4895,3.4845,3.4804,3.4721,3.4711,3.4638,3.4617,3.4572,3.4545,3.4488,0,0]}]]